Weather History for Charleston, SC

Change the Weather History Date:

Tuesday, November 26, 2013

  Actual Average Record
Temperature  
Mean Temperature 59 °F 56 °F  
Max Temperature 73 °F 67 °F 82 °F (1973)
Min Temperature 45 °F 45 °F 19 °F (1950)
Degree Days  
Heating Degree Days 6 10  
Month to date heating degree days 191 181  
Since 1 July heating degree days 233 250  
Cooling Degree Days 0 1  
Month to date cooling degree days 34 31  
Year to date cooling degree days 2429 2295  
Growing Degree Days 9 (Base 50)    
Moisture  
Dew Point 59 °F    
Average Humidity 85    
Maximum Humidity 93    
Minimum Humidity 76    
Precipitation  
Precipitation 2.09 in 0.08 in 2.09 in (2013)
Month to date precipitation 3.43 2.10  
Year to date precipitation 55.87 47.59  
Sea Level Pressure  
Sea Level Pressure 29.91 in    
Wind  
Wind Speed 12 mph (SSE)    
Max Wind Speed 25 mph    
Max Gust Speed 33 mph    
Visibility 6 miles    
Events Rain , Thunderstorm    
T = Trace of Precipitation, MM = Missing Value Source: NWS Daily Summary

Daily Weather History Graph

Daily Weather History Graph

Search for Another Location

Airport:

Trip Planner

Search our weather history database for the weather conditions in past years. The results will help you decide how hot, cold, wet, or windy it might be!

Date:

Astronomy

Nov. 26, 2013 Rise Set
Actual Time 7:00 AM EST 5:14 PM EST
Civil Twilight 6:33 AM EST 5:40 PM EST
Nautical Twilight 6:03 AM EST 6:11 PM EST
Astronomical Twilight 5:33 AM EST 6:40 PM EST
Moon 12:23 AM EST (11/26) 1:01 PM EST (11/26)
Length of Visible Light 11h 07m
Length of Day
10h 13m
Last Quarter, 41% of the Moon is Illuminated
Nov 26
Last Quarter
Dec 2
New
Dec 9
First Quarter
Dec 17
Full
Dec 25
Last Quarter

Hourly Weather History & Observations

Time (EST) Temp. Windchill Dew Point Humidity Pressure Visibility Wind Dir Wind Speed Gust Speed Precip Events Conditions
12:56 AM 46.9 °F - 39.9 °F 77% 30.23 in 9.0 mi NE 11.5 mph - N/A   Overcast
1:31 AM 46.4 °F 41.9 °F 41.0 °F 81% 30.22 in 10.0 mi NNE 9.2 mph - N/A   Overcast
1:56 AM 46.9 °F - 41.0 °F 80% 30.21 in 10.0 mi NNE 8.1 mph - N/A   Overcast
2:14 AM 46.4 °F 42.9 °F 41.0 °F 81% 30.21 in 7.0 mi NNE 6.9 mph - 0.00 in Rain Light Rain
2:42 AM 44.6 °F 39.2 °F 41.0 °F 87% 30.18 in 10.0 mi NNE 10.4 mph - 0.00 in   Overcast
2:56 AM 45.0 °F 41.8 °F 41.0 °F 86% 30.17 in 10.0 mi NE 5.8 mph - 0.00 in   Mostly Cloudy
3:43 AM 44.6 °F 42.2 °F 41.0 °F 87% 30.16 in 10.0 mi North 4.6 mph - 0.00 in Rain Light Rain
3:56 AM 45.0 °F 41.2 °F 41.0 °F 86% 30.15 in 10.0 mi NNE 6.9 mph - 0.00 in   Overcast
4:32 AM 46.4 °F 44.3 °F 42.8 °F 87% 30.17 in 10.0 mi North 4.6 mph - N/A   Overcast
4:56 AM 46.0 °F 42.5 °F 42.1 °F 86% 30.15 in 10.0 mi NNE 6.9 mph - 0.00 in   Mostly Cloudy
5:56 AM 46.9 °F - 43.0 °F 86% 30.11 in 10.0 mi NNE 5.8 mph - 0.00 in   Overcast
6:56 AM 48.9 °F - 45.0 °F 86% 30.09 in 10.0 mi NNE 4.6 mph - N/A   Overcast
7:56 AM 52.0 °F - 48.0 °F 86% 30.08 in 10.0 mi Calm Calm - N/A   Overcast
8:56 AM 57.0 °F - 51.1 °F 81% 30.06 in 10.0 mi East 4.6 mph - 0.00 in   Overcast
9:56 AM 66.0 °F - 59.0 °F 78% 30.03 in 10.0 mi SE 15.0 mph - 0.00 in   Overcast
10:56 AM 66.9 °F - 61.0 °F 81% 30.01 in 10.0 mi SE 15.0 mph 26.5 mph N/A   Overcast
11:56 AM 66.0 °F - 62.1 °F 87% 29.96 in 5.0 mi SE 21.9 mph 29.9 mph 0.03 in Rain Light Rain
12:56 PM 66.9 °F - 64.0 °F 90% 29.92 in 5.0 mi SSE 11.5 mph - 0.06 in Rain Light Rain
1:33 PM 66.2 °F - 64.4 °F 94% 29.89 in 3.0 mi SSE 13.8 mph - 0.10 in Rain Rain
2:00 PM 68.0 °F - 64.4 °F 88% 29.86 in 3.0 mi SE 13.8 mph - 0.16 in Rain Rain
2:28 PM 68.0 °F - 64.4 °F 88% 29.84 in 2.0 mi SE 18.4 mph 25.3 mph 0.22 in Rain Rain
2:37 PM 68.0 °F - 64.4 °F 88% 29.83 in 1.5 mi SSE 17.3 mph 25.3 mph 0.27 in Rain Rain
2:52 PM 68.0 °F - 66.2 °F 94% 29.81 in 3.0 mi SSE 16.1 mph 24.2 mph 0.33 in Rain Light Rain
2:56 PM 68.0 °F - 66.0 °F 93% 29.81 in 4.0 mi SSE 15.0 mph 24.2 mph 0.33 in Rain Light Rain
3:33 PM 69.8 °F - 66.2 °F 88% 29.77 in 2.0 mi SSE 16.1 mph 24.2 mph 0.04 in Rain Rain
3:42 PM 69.8 °F - 66.2 °F 88% 29.77 in 1.5 mi SE 17.3 mph 23.0 mph 0.08 in Rain Heavy Rain
3:56 PM 70.0 °F - 66.9 °F 90% 29.76 in 1.5 mi SSE 17.3 mph 27.6 mph 0.21 in Rain Heavy Rain
4:13 PM 69.8 °F - 66.2 °F 88% 29.78 in 2.0 mi South 16.1 mph 28.8 mph 0.11 in Rain Rain
4:27 PM 69.8 °F - 66.2 °F 88% 29.77 in 2.0 mi South 19.6 mph 28.8 mph 0.13 in Rain Light Rain
4:34 PM 69.8 °F - 66.2 °F 88% 29.77 in 4.0 mi South 19.6 mph 29.9 mph 0.14 in Rain Light Rain
4:56 PM 69.1 °F - 66.9 °F 93% 29.76 in 3.0 mi South 16.1 mph 28.8 mph 0.32 in Rain Heavy Rain
4:58 PM 69.8 °F - 66.2 °F 88% 29.75 in 3.0 mi South 16.1 mph 28.8 mph 0.00 in Rain , Thunderstorm Thunderstorms and Rain
5:31 PM 69.8 °F - 68.0 °F 94% 29.72 in 1.5 mi Variable 6.9 mph 23.0 mph 0.41 in Rain Heavy Rain
5:38 PM 69.8 °F - 68.0 °F 94% 29.76 in 1.0 mi South 12.7 mph 16.1 mph 0.56 in Rain Heavy Rain
5:51 PM 71.6 °F - 68.0 °F 88% 29.74 in 2.0 mi WSW 15.0 mph 23.0 mph 0.79 in Rain Rain
5:56 PM 72.0 °F - 68.0 °F 87% 29.75 in 2.0 mi WSW 21.9 mph 29.9 mph 0.87 in Rain Heavy Rain
6:12 PM 71.6 °F - 68.0 °F 88% 29.74 in 4.0 mi SSW 16.1 mph 27.6 mph 0.08 in   Overcast
6:56 PM 72.0 °F - 69.1 °F 91% 29.73 in 6.0 mi SSW 17.3 mph 27.6 mph 0.09 in   Overcast
7:56 PM 73.0 °F - 69.1 °F 87% 29.73 in 9.0 mi SSW 16.1 mph 24.2 mph 0.01 in   Overcast
8:10 PM 73.4 °F - 69.8 °F 88% 29.73 in 9.0 mi SSW 17.3 mph 25.3 mph 0.01 in   Overcast
8:56 PM 73.0 °F - 69.1 °F 87% 29.70 in 9.0 mi SSW 18.4 mph 26.5 mph 0.01 in   Overcast
9:56 PM 72.0 °F - 68.0 °F 87% 29.70 in 4.0 mi SW 15.0 mph 25.3 mph 0.01 in Rain Heavy Rain
10:01 PM 71.6 °F - 68.0 °F 88% 29.71 in 2.0 mi SW 17.3 mph 26.5 mph 0.07 in Rain Heavy Rain
10:10 PM 71.6 °F - 68.0 °F 88% 29.70 in 7.0 mi WSW 10.4 mph 26.5 mph 0.14 in Rain Rain
10:56 PM 69.1 °F - 66.0 °F 90% 29.67 in 10.0 mi SSW 12.7 mph - 0.15 in Rain Light Rain
11:56 PM 70.0 °F - 66.0 °F 87% 29.61 in 9.0 mi SSW 15.0 mph 24.2 mph 0.00 in   Overcast